Simultaneous Nadir Overpasses (SNOs) Predictions

Prediction of SNOs between LANDSAT-8 and NOAA-19 Satellite Orbit:

Table of predicted SNOs for the next 14.0 days since TLE Epoch: 9/7/2015
Index Date (LANDSAT-8) Time (LANDSAT-8) Lat,Lon (LANDSAT-8) SZA (LANDSAT-8 ) Date (NOAA-19) Time (NOAA-19) Lat,Lon (NOAA-19) SZA (NOAA-19 ) Distance(km) Time Diff (sec)
1 09/07/2015 13:26:32 -73.61, 160.68 112.52 09/07/2015 13:25:25 -73.63, 160.59 112.51 3.28 67
2 09/07/2015 14:15:59 73.53, -31.85 67.42 09/07/2015 14:16:21 73.50, -31.85 67.39 3.56 22
3 09/09/2015 19:00:17 73.58,-102.82 68.30 09/09/2015 18:59:40 73.58,-102.84 68.30 0.68 37
4 09/09/2015 19:49:46 -73.52, 64.68 111.76 09/09/2015 19:50:42 -73.51, 64.58 111.77 3.20 56
5 09/12/2015 00:34:04 -73.56, -6.30 110.88 09/12/2015 00:34:00 -73.57, -6.35 110.87 1.80 4
6 09/12/2015 01:23:40 73.00, 160.19 68.56 09/12/2015 01:24:48 73.01, 162.21 68.61 65.55 68
7 09/14/2015 05:18:22 -73.61, -77.28 109.99 09/14/2015 05:17:18 -73.64, -77.29 109.96 3.23 64
8 09/14/2015 06:07:49 73.52, 90.17 69.94 09/14/2015 06:08:16 73.54, 90.18 69.97 2.74 27
9 09/16/2015 10:52:06 73.61, 19.29 70.88 09/16/2015 10:51:34 73.59, 19.29 70.86 1.92 32
10 09/16/2015 11:41:36 -73.50,-173.31 109.23 09/16/2015 11:42:34 -73.49,-173.23 109.23 2.70 58
11 09/18/2015 15:36:12 74.26, -50.31 72.42 09/18/2015 15:35:06 74.32, -53.36 72.42 91.94 66
12 09/18/2015 16:25:53 -73.59, 115.80 108.28 09/18/2015 16:25:52 -73.57, 115.80 108.30 1.84 1
13 09/18/2015 17:15:33 72.81, -78.14 70.93 09/18/2015 17:16:38 72.83, -75.26 71.02 94.74 65
14 09/20/2015 21:10:10 -73.67, 44.91 107.34 09/20/2015 21:09:10 -73.65, 44.82 107.36 3.27 60
15 09/20/2015 21:59:37 73.57,-147.66 72.58 09/20/2015 22:00:10 73.58,-147.76 72.59 3.32 33




NCC Satellite Simultaneous Nadir Overpasses (SNOs) Prediction Service
